User: anonymous
Location: Brno
(49.2000°N, 16.6330°E)
Time: 04:18:48
(UTC+02:00)
Language:

Cosmos 1603 - Orbit

View from above orbital plane
View from above orbital plane
View from above satellite
View from above satellite

Ground track
Ground track

The orbit data is extracted from the following two-line orbital elements,

1 15333U 84106A   14265.49169662 -.00000246  00000-0 -10429-3 0   865
2 15333 071.0297 023.4573 0022325 286.5872 141.5707 14.13951800547091
Epoch (UTC): 22 September 2014 11:48:02
Eccentricity: 0.0022325
inclination: 71.0297°
perigee height: 830 km
apogee height: 862 km
right ascension of ascending node: 23.4573°
argument of perigee: 286.5872°
revolutions per day: 14.13951800
mean anomaly at epoch: 141.5707°
orbit number at epoch: 54709

The dashed part of the orbit path shows where the satellite is in the earth's shadow,  

DLR